Sisters Island, British Columbia

11:41 AM PDT on May 25, 2017 (GMT -0700)
Sisters Island

Weather History for CWGT - November, 2012

Change the Weather History Date:

Thursday, November 1, 2012

  Actual Average Record
Temperature  
Mean Temperature 50 °F -  
Max Temperature 52 °F - - ()
Min Temperature 49 °F - - ()
Degree Days  
Heating Degree Days 14    
Moisture  
Dew Point 49 °F    
Average Humidity 93    
Maximum Humidity 96    
Minimum Humidity 86    
Precipitation  
Precipitation 0.00 in - - ()
Sea Level Pressure  
Sea Level Pressure 29.80 in    
Wind  
Wind Speed 12 mph ()    
Max Wind Speed 26 mph    
Max Gust Speed -    
T = Trace of Precipitation, MM = Missing Value Source: Averaged Metar Reports

Daily Weather History Graph

Daily Weather History Graph

Search for Another Location

Airport or City:

Trip Planner

Search our weather history database for the weather conditions in past years. The results will help you decide how hot, cold, wet, or windy it might be!

Date:

Astronomy

Nov. 01, 2012 Rise Set
Actual Time 8:07 AM PDT 5:54 PM PDT
Civil Twilight 7:33 AM PDT 6:28 PM PDT
Nautical Twilight 6:55 AM PDT 7:06 PM PDT
Astronomical Twilight 6:18 AM PDT 7:43 PM PDT
Moon 7:44 PM PDT (11/1) 10:56 AM PDT (11/1)
Length of Visible Light 10h 54m
Length of Day
9h 47m
Waning Gibbous, 92% of the Moon is Illuminated
Nov 1
Waning Gibbous
Nov 6
Last Quarter
Nov 13
New
Nov 20
First Quarter
Nov 28
Full

Hourly Weather History & Observations

Time (PDT) Temp. Dew Point Humidity Pressure Visibility Wind Dir Wind Speed Gust Speed Precip Events Conditions
12:00 AM 50.9 °F 49.8 °F 96% 29.65 in - SE 19.6 mph - N/A   Unknown
1:00 AM 51.3 °F 49.8 °F 95% 29.66 in - SE 18.4 mph - N/A   Unknown
2:00 AM 51.3 °F 49.6 °F 94% 29.67 in - SE 19.6 mph - N/A   Unknown
3:00 AM 51.1 °F 49.5 °F 94% 29.68 in - SE 16.1 mph - N/A   Unknown
4:00 AM 50.9 °F 49.3 °F 94% 29.69 in - SE 17.3 mph - N/A   Unknown
5:00 AM 51 °F 49 °F 92% 29.70 in - SE 12.7 mph - -  
5:00 AM 50.9 °F 49.3 °F 94% 29.70 in - SE 12.7 mph - N/A   Unknown
6:00 AM 49.6 °F 48.4 °F 95% 29.72 in - WSW 3.5 mph - N/A   Unknown
7:00 AM 50.0 °F 48.9 °F 96% 29.73 in - SE 1.2 mph - N/A   Unknown
8:00 AM 50.2 °F 48.9 °F 95% 29.75 in - SW 1.2 mph - N/A   Unknown
9:00 AM 50.0 °F 48.6 °F 95% 29.77 in - North 3.5 mph - N/A   Unknown
10:00 AM 50.0 °F 48.7 °F 95% 29.78 in - NNE 2.3 mph - N/A   Unknown
11:00 AM 51 °F 49 °F 91% 29.81 in - SE 3.5 mph - -  
11:00 AM 50.5 °F 49.1 °F 95% 29.81 in - SE 3.5 mph - N/A   Unknown
12:00 PM 50.5 °F 48.9 °F 94% 29.83 in - SSE 3.5 mph - N/A   Unknown
1:00 PM 50.9 °F 49.1 °F 94% 29.84 in - SE 5.8 mph - N/A   Unknown
2:00 PM 50.7 °F 48.9 °F 94% 29.85 in - SSE 4.6 mph - N/A   Unknown
3:00 PM 51.4 °F 49.3 °F 92% 29.85 in - SE 10.4 mph - N/A   Unknown
4:00 PM 51.4 °F 48.7 °F 90% 29.86 in - ESE 15.0 mph - N/A   Unknown
5:00 PM 52 °F 49 °F 86% 29.86 in - ESE 19.6 mph - -  
5:00 PM 51.8 °F 49.1 °F 90% 29.86 in - ESE 19.6 mph - N/A   Unknown
6:00 PM 51.1 °F 49.1 °F 93% 29.87 in - ESE 15.0 mph - N/A   Unknown
7:00 PM 51.3 °F 49.1 °F 92% 29.88 in - ESE 19.6 mph - N/A   Unknown
8:00 PM 51.3 °F 49.3 °F 93% 29.89 in - ESE 20.7 mph - N/A   Unknown
9:00 PM 51.8 °F 49.8 °F 93% 29.89 in - ESE 24.2 mph - N/A   Unknown
10:00 PM 51.3 °F 49.5 °F 94% 29.91 in - ESE 23.0 mph - N/A   Unknown
11:00 PM 51 °F 50 °F 93% 29.91 in - ESE 26.5 mph - -  
11:00 PM 51.3 °F 49.6 °F 94% 29.91 in - ESE 26.5 mph - N/A   Unknown